STARLINK-1363, 45568

Orbit data source: Space-Track

STARLINK-1363, 45568 is a payload satellite owned by SpaceX/Seattle (US) in LEO that was launched on Wed, 22 Apr 2020 UTC via an FALCON 9 launch vehicle from the Air Force Eastern Test Range (AFETR). Payload-class satellites include a variety of spacecraft equipped with specific instruments for various scientific and technological missions. These include communications satellites like Starlink; space stations such as the ISS; scientific satellites like the Hubble; Earth observation satellites from companies like Planet Labs, Umbra, and HawkEye 360; GPS; miniature CubeSats for education and research; and military/defense satellites.

Loading next visibility...
Identifier
45568, 2020-025AP
Orbit
LEO
Country
Flag of USUS
Related business
Manufacturer
SpaceX/Seattle
Mission
Partially operational Commercial Communications
Bus & Motor
STARLINK, Unknown motor
Mass
260 kg wet, ~248 kg dry
Launch date (UTC)
2020-04-22 (6 years ago)
Launch vehicle
FALCON 9
Launch site
Air Force Eastern Test Range (AFETR)
Object type
Payload
Rocket body
Debris
Shape & HBR
Box + 1 Pan, 10.1 m
Radar Cross Section
13.562 m², Large (>1 m²)

Expand to show TLE details & history
Last TLE update: 12 hours ago

TLE from 12 hours ago
0 STARLINK-1363
1 45568U 20025AP  25312.91667823  .00134366  00000-0  29563-2 0  9992
2 45568  53.0534 264.3120 0004333  98.1246 308.0588 15.43018152  5794
Epoch: 2025-11-08T22:00Z
TLE epoch observation values (Epoch: 2025-11-08T22:00:00.999Z)
Latitude
35.30499°
Longitude
-82.04975°
Altitude
438.013 km
Speed
7.655 km/s
True Right ascension
19h 45m 10s
True Declination
35° 08' 07"
Sunlit
Object was in daylight at epoch
Visualization orbit readout
Latitude
Unknown
Longitude
Unknown
Altitude
Unknown
Speed
Unknown
Apparent Right ascension
Unknown
Apparent Declination
Unknown
Sunlit
N/A
Visualization observer readout
Local Sidereal Time
06:32:32
Azimuth
Unknown
Elevation
Unknown
Doppler factor
Unknown
Orbital elements
Apogee altitude
440.436 km
Perigee altitude
434.529 km
Semi-major axis
6,815.62 km
Eccentricity
0.00043
Inclination
53.0534°
RAAN
264.312°
Arg. of periapsis
98.1246°
True anomaly
308.01969°
Mean anomaly
308.0588°
Eccentric anomaly
308.03925°
Mean motion
3.85732 °/min
Orbital period
93.33 mins
BSTAR
0.0029563
Loading maneuver chart data...
Computing Atmospheric mass density...
Loading historical data...
Loading historical data...
Loading historical data...
Loading historical data...
Loading historical data...
Loading historical data...
Loading historical data...

Documentation

Showing up to 5 results
|